Wolf Creek Pass, CO

5:24 PM MDT on July 25, 2017 (GMT -0600)
Wolf Creek Pass

Weather History for KCPW - October, 2012

Change the Weather History Date:

Saturday, October 6, 2012

  Actual Average (KALS) Record (KALS)
Temperature  
Mean Temperature 37 °F -  
Max Temperature 44 °F 67 °F 78 °F (1934)
Min Temperature 30 °F 27 °F 13 °F (1969)
Degree Days  
Heating Degree Days 28    
Moisture  
Dew Point 9 °F    
Average Humidity 36    
Maximum Humidity 55    
Minimum Humidity 15    
Precipitation  
Precipitation 0.00 in - - ()
Sea Level Pressure  
Sea Level Pressure 30.25 in    
Wind  
Wind Speed 16 mph (SW)    
Max Wind Speed 24 mph    
Max Gust Speed 43 mph    
Visibility 10 miles    
Events      
Averages and records for this station are not official NWS values.
T = Trace of Precipitation, MM = Missing Value Source: NWS Daily Summary

Daily Weather History Graph

Daily Weather History Graph

Search for Another Location

Airport or City:

Trip Planner

Search our weather history database for the weather conditions in past years. The results will help you decide how hot, cold, wet, or windy it might be!

Date:

Astronomy

Oct. 06, 2012 Rise Set
Actual Time 7:07 AM MDT 6:42 PM MDT
Civil Twilight 6:41 AM MDT 7:08 PM MDT
Nautical Twilight 6:11 AM MDT 7:38 PM MDT
Astronomical Twilight 5:40 AM MDT 8:08 PM MDT
Moon 11:05 PM MDT (10/6) 12:58 PM MDT (10/6)
Length of Visible Light 12h 26m
Length of Day
11h 34m
Waning Gibbous, 65% of the Moon is Illuminated
Oct 6
Waning Gibbous
Oct 8
Last Quarter
Oct 15
New
Oct 21
First Quarter
Oct 29
Full

Hourly Weather History & Observations

Time (MDT) Temp. Windchill Dew Point Humidity Pressure Visibility Wind Dir Wind Speed Gust Speed Precip Events Conditions
12:05 AM 33.8 °F 23.5 °F 15.8 °F 48% 30.31 in 10.0 mi SW 16.1 mph 25.3 mph N/A   Mostly Cloudy
12:45 AM 33.8 °F 23.9 °F 15.8 °F 48% 30.29 in 10.0 mi SW 15.0 mph 24.2 mph N/A   Overcast
1:06 AM 33.8 °F 23.5 °F 17.6 °F 52% 30.29 in 10.0 mi SW 16.1 mph 32.2 mph N/A   Overcast
1:26 AM 33.8 °F 21.9 °F 15.8 °F 48% 30.28 in 10.0 mi SW 21.9 mph 32.2 mph N/A   Mostly Cloudy
1:45 AM 32.0 °F 19.5 °F 15.8 °F 51% 30.29 in 10.0 mi SW 21.9 mph 27.6 mph N/A   Scattered Clouds
2:05 AM 32.0 °F 20.1 °F 17.6 °F 55% 30.28 in 10.0 mi SW 19.6 mph 29.9 mph N/A   Scattered Clouds
2:26 AM 32.0 °F 19.8 °F 17.6 °F 55% 30.28 in 10.0 mi SW 20.7 mph 27.6 mph N/A   Scattered Clouds
2:46 AM 32.0 °F 21.6 °F 17.6 °F 55% 30.29 in 10.0 mi SW 15.0 mph 26.5 mph N/A   Clear
3:25 AM 32.0 °F 21.6 °F 15.8 °F 51% 30.27 in 10.0 mi SW 15.0 mph - N/A   Clear
3:46 AM 32.0 °F 21.2 °F 15.8 °F 51% 30.27 in 10.0 mi SW 16.1 mph 19.6 mph N/A   Clear
4:06 AM 32.0 °F 22.1 °F 14.0 °F 48% 30.27 in 10.0 mi SW 13.8 mph 19.6 mph N/A   Clear
4:25 AM 32.0 °F 21.6 °F 14.0 °F 48% 30.27 in 10.0 mi WSW 15.0 mph 23.0 mph N/A   Clear
4:45 AM 32.0 °F 19.8 °F 14.0 °F 48% 30.27 in 10.0 mi SW 20.7 mph 25.3 mph N/A   Clear
5:06 AM 32.0 °F 21.6 °F 14.0 °F 48% 30.27 in 10.0 mi SW 15.0 mph 23.0 mph N/A   Clear
5:27 AM 32.0 °F 23.0 °F 14.0 °F 48% 30.27 in 10.0 mi SW 11.5 mph - N/A   Clear
5:45 AM 32.0 °F 21.2 °F 14.0 °F 48% 30.27 in 10.0 mi SW 16.1 mph 20.7 mph N/A   Scattered Clouds
6:05 AM 30.2 °F 18.5 °F 14.0 °F 51% 30.27 in 10.0 mi SW 17.3 mph 20.7 mph N/A   Scattered Clouds
6:24 AM 30.2 °F 18.9 °F 14.0 °F 51% 30.27 in 10.0 mi SW 16.1 mph 20.7 mph N/A   Clear
6:45 AM 30.2 °F 18.1 °F 14.0 °F 51% 30.26 in 10.0 mi SW 18.4 mph 23.0 mph N/A   Clear
7:04 AM 30.2 °F 19.3 °F 14.0 °F 51% 30.27 in 10.0 mi SW 15.0 mph 20.7 mph N/A   Clear
7:25 AM 30.2 °F 18.5 °F 14.0 °F 51% 30.27 in 10.0 mi SW 17.3 mph 20.7 mph N/A   Clear
7:47 AM 30.2 °F 18.1 °F 14.0 °F 51% 30.26 in 10.0 mi SW 18.4 mph 25.3 mph N/A   Clear
8:03 AM 30.2 °F 18.1 °F 14.0 °F 51% 30.27 in 10.0 mi SW 18.4 mph 24.2 mph N/A   Clear
8:26 AM 32.0 °F 21.2 °F 14.0 °F 48% 30.27 in 10.0 mi SW 16.1 mph 23.0 mph N/A   Clear
8:46 AM 32.0 °F 22.5 °F 15.8 °F 51% 30.27 in 10.0 mi SW 12.7 mph 23.0 mph N/A   Clear
9:06 AM 33.8 °F 24.8 °F 15.8 °F 48% 30.28 in 10.0 mi SSW 12.7 mph 19.6 mph N/A   Clear
9:25 AM 32.0 °F 23.0 °F 15.8 °F 51% 30.29 in 10.0 mi SW 11.5 mph 17.3 mph N/A   Clear
9:45 AM 32.0 °F 23.0 °F 17.6 °F 55% 30.29 in 10.0 mi SW 11.5 mph 18.4 mph N/A   Clear
10:06 AM 35.6 °F 26.6 °F 17.6 °F 48% 30.29 in 10.0 mi SSW 13.8 mph 19.6 mph N/A   Clear
10:26 AM 35.6 °F 28.0 °F 17.6 °F 48% 30.28 in 10.0 mi SW 10.4 mph 24.2 mph N/A   Clear
10:46 AM 37.4 °F 28.2 °F 17.6 °F 45% 30.28 in 10.0 mi SW 16.1 mph 24.2 mph N/A   Clear
11:05 AM 37.4 °F 29.3 °F 17.6 °F 45% 30.27 in 10.0 mi SW 12.7 mph 21.9 mph N/A   Clear
11:24 AM 39.2 °F 30.5 °F 17.6 °F 42% 30.27 in 10.0 mi SSW 16.1 mph 25.3 mph N/A   Clear
11:46 AM 41.0 °F 33.1 °F 17.6 °F 39% 30.27 in 10.0 mi SW 15.0 mph 27.6 mph N/A   Clear
12:06 PM 41.0 °F 33.5 °F 15.8 °F 36% 30.27 in 10.0 mi SSW 13.8 mph 24.2 mph N/A   Clear
12:25 PM 42.8 °F 36.6 °F 17.6 °F 36% 30.27 in 10.0 mi SSW 11.5 mph 21.9 mph N/A   Clear
12:46 PM 41.0 °F 31.9 °F 14.0 °F 33% 30.26 in 10.0 mi SW 19.6 mph 32.2 mph N/A   Clear
1:05 PM 41.0 °F 32.5 °F 14.0 °F 33% 30.25 in 10.0 mi South 17.3 mph 33.4 mph N/A   Clear
1:26 PM 42.8 °F 36.2 °F 12.2 °F 29% 30.24 in 10.0 mi SSW 12.7 mph 32.2 mph N/A   Scattered Clouds
1:47 PM 42.8 °F 35.1 °F 12.2 °F 29% 30.22 in 10.0 mi SW 16.1 mph 27.6 mph N/A   Scattered Clouds
2:05 PM 42.8 °F 36.2 °F 8.6 °F 25% 30.22 in 10.0 mi SSW 12.7 mph 36.8 mph N/A   Scattered Clouds
2:26 PM 42.8 °F 35.1 °F 6.8 °F 23% 30.21 in 10.0 mi SSW 16.1 mph 38.0 mph N/A   Scattered Clouds
2:46 PM 44.6 °F 36.6 °F 6.8 °F 21% 30.21 in 10.0 mi SSW 19.6 mph 29.9 mph N/A   Clear
3:07 PM 44.6 °F 37.2 °F 3.2 °F 18% 30.20 in 10.0 mi SW 17.3 mph 31.1 mph N/A   Scattered Clouds
3:26 PM 44.6 °F 38.1 °F 1.4 °F 17% 30.20 in 10.0 mi SSW 13.8 mph 42.6 mph N/A   Clear
3:46 PM 44.6 °F 35.7 °F -0.4 °F 15% 30.20 in 10.0 mi SW 24.2 mph 39.1 mph N/A   Clear
4:05 PM 44.6 °F - 1.4 °F 17% 30.21 in 10.0 mi North - - N/A   Clear
4:25 PM 42.8 °F 34.5 °F 1.4 °F 18% 30.20 in 10.0 mi SSW 18.4 mph 39.1 mph N/A   Clear
5:05 PM 41.0 °F 31.1 °F -2.2 °F 16% 30.21 in 10.0 mi SW 23.0 mph 31.1 mph N/A   Clear
5:25 PM 41.0 °F 33.9 °F -0.4 °F 18% 30.21 in 10.0 mi South 12.7 mph 26.5 mph N/A   Clear
5:45 PM 37.4 °F 27.2 °F -0.4 °F 20% 30.21 in 10.0 mi SW 19.6 mph 34.5 mph N/A   Clear
6:05 PM 37.4 °F 27.2 °F -2.2 °F 19% 30.22 in 10.0 mi SSW 19.6 mph 33.4 mph N/A   Clear
6:25 PM 35.6 °F 25.9 °F -0.4 °F 22% 30.22 in 10.0 mi SW 16.1 mph 26.5 mph N/A   Clear
6:46 PM 33.8 °F 22.8 °F -0.4 °F 23% 30.23 in 10.0 mi SW 18.4 mph 28.8 mph N/A   Clear
7:03 PM 33.8 °F 23.9 °F 1.4 °F 25% 30.24 in 10.0 mi SW 15.0 mph 24.2 mph N/A   Clear
7:25 PM 32.0 °F 21.6 °F 1.4 °F 27% 30.24 in 10.0 mi SSW 15.0 mph 23.0 mph N/A   Clear
7:45 PM 32.0 °F 21.6 °F -0.4 °F 25% 30.24 in 10.0 mi SW 15.0 mph 20.7 mph N/A   Clear
8:05 PM 32.0 °F 21.2 °F -0.4 °F 25% 30.24 in 10.0 mi SW 16.1 mph 20.7 mph N/A   Clear
8:25 PM 32.0 °F 20.8 °F -2.2 °F 23% 30.24 in 10.0 mi SW 17.3 mph 23.0 mph N/A   Clear
8:45 PM 32.0 °F 20.8 °F -4.0 °F 21% 30.25 in 10.0 mi SW 17.3 mph - N/A   Clear
9:05 PM 32.0 °F 20.8 °F -4.0 °F 21% 30.26 in 10.0 mi SW 17.3 mph 23.0 mph N/A   Clear
9:27 PM 32.0 °F 21.6 °F -5.8 °F 20% 30.26 in 10.0 mi SW 15.0 mph 21.9 mph N/A   Clear
9:45 PM 30.2 °F 19.3 °F -5.8 °F 21% 30.25 in 10.0 mi SW 15.0 mph 20.7 mph N/A   Clear
10:05 PM 30.2 °F 19.8 °F -5.8 °F 21% 30.25 in 10.0 mi SW 13.8 mph - N/A   Clear
10:25 PM 30.2 °F 19.3 °F -4.0 °F 23% 30.24 in 10.0 mi SW 15.0 mph 23.0 mph N/A   Clear
10:44 PM 30.2 °F 18.5 °F -4.0 °F 23% 30.25 in 10.0 mi SW 17.3 mph 21.9 mph N/A   Clear
11:05 PM 30.2 °F 18.9 °F -4.0 °F 23% 30.24 in 10.0 mi SW 16.1 mph 21.9 mph N/A   Clear
11:25 PM 30.2 °F 18.1 °F -5.8 °F 21% 30.24 in 10.0 mi SW 18.4 mph 24.2 mph N/A   Clear
11:45 PM 30.2 °F 17.8 °F -5.8 °F 21% 30.24 in 10.0 mi SW 19.6 mph 25.3 mph N/A   Clear